#Datum;Uhrzeit;WR;Pac;DaySum;Status;WR;Pac;DaySum;Status;Pdc1;Udc;Temp;WR;Pac;DaySum;Status;Pdc1;Udc;Temp;WR;Pac;DaySum;Status;Pdc1;Udc;Temp;WR;Pac;DaySum;Status;Pdc1;Pdc2;Udc1;Udc2;Temp;WR;Pac;DaySum;Status;Pdc1;Pdc2;Udc1;Udc2;Temp;WR;Pac;DaySum;Status;Pdc1;Udc;Temp;WR;Pac;DaySum;Status;Pdc1;Udc;Temp;WR;Pac;DaySum;Status;Pdc1;Udc;Temp
12.01.18;23:55:00;1;704;10044;0;2;0;3149;0;0;0;0;3;0;1942;0;0;0;0;4;0;2707;0;0;0;0;5;0;6908;0;0;0;0;0;0;6;0;5144;0;0;0;0;0;0;7;0;3359;0;0;0;0;8;0;3373;0;0;0;0;9;0;1773;0;0;0;0
12.01.18;23:50:00;1;406;9985;0;2;0;3149;0;0;0;0;3;0;1942;0;0;0;0;4;0;2707;0;0;0;0;5;0;6908;0;0;0;0;0;0;6;0;5144;0;0;0;0;0;0;7;0;3359;0;0;0;0;8;0;3373;0;0;0;0;9;0;1773;0;0;0;0
12.01.18;23:45:00;1;467;9950;0;2;0;3149;0;0;0;0;3;0;1942;0;0;0;0;4;0;2707;0;0;0;0;5;0;6908;0;0;0;0;0;0;6;0;5144;0;0;0;0;0;0;7;0;3359;0;0;0;0;8;0;3373;0;0;0;0;9;0;1773;0;0;0;0
12.01.18;23:40:00;1;460;9911;0;2;0;3149;0;0;0;0;3;0;1942;0;0;0;0;4;0;2707;0;0;0;0;5;0;6908;0;0;0;0;0;0;6;0;5144;0;0;0;0;0;0;7;0;3359;0;0;0;0;8;0;3373;0;0;0;0;9;0;1773;0;0;0;0
12.01.18;23:35:00;1;463;9873;0;2;0;3149;0;0;0;0;3;0;1942;0;0;0;0;4;0;2707;0;0;0;0;5;0;6908;0;0;0;0;0;0;6;0;5144;0;0;0;0;0;0;7;0;3359;0;0;0;0;8;0;3373;0;0;0;0;9;0;1773;0;0;0;0
12.01.18;23:30:00;1;1223;9834;0;2;0;3149;0;0;0;0;3;0;1942;0;0;0;0;4;0;2707;0;0;0;0;5;0;6908;0;0;0;0;0;0;6;0;5144;0;0;0;0;0;0;7;0;3359;0;0;0;0;8;0;3373;0;0;0;0;9;0;1773;0;0;0;0
12.01.18;23:25:00;1;398;9771;0;2;0;3149;0;0;0;0;3;0;1942;0;0;0;0;4;0;2707;0;0;0;0;5;0;6908;0;0;0;0;0;0;6;0;5144;0;0;0;0;0;0;7;0;3359;0;0;0;0;8;0;3373;0;0;0;0;9;0;1773;0;0;0;0
12.01.18;23:20:00;1;426;9737;0;2;0;3149;0;0;0;0;3;0;1942;0;0;0;0;4;0;2707;0;0;0;0;5;0;6908;0;0;0;0;0;0;6;0;5144;0;0;0;0;0;0;7;0;3359;0;0;0;0;8;0;3373;0;0;0;0;9;0;1773;0;0;0;0
12.01.18;23:15:00;1;427;9702;0;2;0;3149;0;0;0;0;3;0;1942;0;0;0;0;4;0;2707;0;0;0;0;5;0;6908;0;0;0;0;0;0;6;0;5144;0;0;0;0;0;0;7;0;3359;0;0;0;0;8;0;3373;0;0;0;0;9;0;1773;0;0;0;0
12.01.18;23:10:00;1;408;9669;0;2;0;3149;0;0;0;0;3;0;1942;0;0;0;0;4;0;2707;0;0;0;0;5;0;6908;0;0;0;0;0;0;6;0;5144;0;0;0;0;0;0;7;0;3359;0;0;0;0;8;0;3373;0;0;0;0;9;0;1773;0;0;0;0
12.01.18;23:05:00;1;676;9635;0;2;0;3149;0;0;0;0;3;0;1942;0;0;0;0;4;0;2707;0;0;0;0;5;0;6908;0;0;0;0;0;0;6;0;5144;0;0;0;0;0;0;7;0;3359;0;0;0;0;8;0;3373;0;0;0;0;9;0;1773;0;0;0;0
12.01.18;23:00:00;1;470;9568;0;2;0;3149;0;0;0;0;3;0;1942;0;0;0;0;4;0;2707;0;0;0;0;5;0;6908;0;0;0;0;0;0;6;0;5144;0;0;0;0;0;0;7;0;3359;0;0;0;0;8;0;3373;0;0;0;0;9;0;1773;0;0;0;0
12.01.18;22:55:00;1;466;9529;0;2;0;3149;0;0;0;0;3;0;1942;0;0;0;0;4;0;2707;0;0;0;0;5;0;6908;2;0;0;0;0;0;6;0;5144;2;0;0;0;0;0;7;0;3359;0;0;0;0;8;0;3373;0;0;0;0;9;0;1773;0;0;0;0
12.01.18;22:50:00;1;444;9490;0;2;0;3149;0;0;0;0;3;0;1942;0;0;0;0;4;0;2707;0;0;0;0;5;0;6908;2;0;0;0;0;0;6;0;5144;2;0;0;0;0;0;7;0;3359;0;0;0;0;8;0;3373;0;0;0;0;9;0;1773;0;0;0;0
12.01.18;22:45:00;1;485;9452;0;2;0;3149;0;0;0;0;3;0;1942;0;0;0;0;4;0;2707;0;0;0;0;5;0;6908;2;0;0;0;0;0;6;0;5144;2;0;0;0;0;0;7;0;3359;0;0;0;0;8;0;3373;0;0;0;0;9;0;1773;0;0;0;0
12.01.18;22:40:00;1;503;9411;0;2;0;3149;0;0;0;0;3;0;1942;0;0;0;0;4;0;2707;0;0;0;0;5;0;6908;2;0;0;0;0;0;6;0;5144;2;0;0;0;0;0;7;0;3359;0;0;0;0;8;0;3373;0;0;0;0;9;0;1773;0;0;0;0
12.01.18;22:35:00;1;1028;9369;0;2;0;3149;0;0;0;0;3;0;1942;0;0;0;0;4;0;2707;0;0;0;0;5;0;6908;2;0;0;0;0;0;6;0;5144;2;0;0;0;0;0;7;0;3359;0;0;0;0;8;0;3373;0;0;0;0;9;0;1773;0;0;0;0
12.01.18;22:30:00;1;520;9299;0;2;0;3149;0;0;0;0;3;0;1942;0;0;0;0;4;0;2707;0;0;0;0;5;0;6908;2;0;0;0;0;0;6;0;5144;2;0;0;0;0;0;7;0;3359;0;0;0;0;8;0;3373;0;0;0;0;9;0;1773;0;0;0;0
12.01.18;22:25:00;1;522;9256;0;2;0;3149;0;0;0;0;3;0;1942;0;0;0;0;4;0;2707;0;0;0;0;5;0;6908;2;0;0;0;0;0;6;0;5144;2;0;0;0;0;0;7;0;3359;0;0;0;0;8;0;3373;0;0;0;0;9;0;1773;0;0;0;0
12.01.18;22:20:00;1;522;9212;0;2;0;3149;0;0;0;0;3;0;1942;0;0;0;0;4;0;2707;0;0;0;0;5;0;6908;2;0;0;0;0;0;6;0;5144;2;0;0;0;0;0;7;0;3359;0;0;0;0;8;0;3373;0;0;0;0;9;0;1773;0;0;0;0
12.01.18;22:15:00;1;531;9168;0;2;0;3149;0;0;0;0;3;0;1942;0;0;0;0;4;0;2707;0;0;0;0;5;0;6908;2;0;0;0;0;0;6;0;5144;2;0;0;0;0;0;7;0;3359;0;0;0;0;8;0;3373;0;0;0;0;9;0;1773;0;0;0;0
12.01.18;22:10:00;1;787;9123;0;2;0;3149;0;0;0;0;3;0;1942;0;0;0;0;4;0;2707;0;0;0;0;5;0;6908;2;0;0;0;0;0;6;0;5144;2;0;0;0;0;0;7;0;3359;0;0;0;0;8;0;3373;0;0;0;0;9;0;1773;0;0;0;0
12.01.18;22:05:00;1;596;9045;0;2;0;3149;0;0;0;0;3;0;1942;0;0;0;0;4;0;2707;0;0;0;0;5;0;6908;2;0;0;0;0;0;6;0;5144;2;0;0;0;0;0;7;0;3359;0;0;0;0;8;0;3373;0;0;0;0;9;0;1773;0;0;0;0
12.01.18;22:00:00;1;534;8995;0;2;0;3149;0;0;0;0;3;0;1942;0;0;0;0;4;0;2707;0;0;0;0;5;0;6908;2;0;0;0;0;0;6;0;5144;2;0;0;0;0;0;7;0;3359;0;0;0;0;8;0;3373;0;0;0;0;9;0;1773;0;0;0;0
12.01.18;21:55:00;1;393;8951;0;2;0;3149;0;0;0;0;3;0;1942;0;0;0;0;4;0;2707;0;0;0;0;5;0;6908;2;0;0;0;0;0;6;0;5144;2;0;0;0;0;0;7;0;3359;0;0;0;0;8;0;3373;0;0;0;0;9;0;1773;0;0;0;0
12.01.18;21:50:00;1;394;8918;0;2;0;3149;0;0;0;0;3;0;1942;0;0;0;0;4;0;2707;0;0;0;0;5;0;6908;2;0;0;0;0;0;6;0;5144;2;0;0;0;0;0;7;0;3359;0;0;0;0;8;0;3373;0;0;0;0;9;0;1773;0;0;0;0
12.01.18;21:45:00;1;394;8885;0;2;0;3149;0;0;0;0;3;0;1942;0;0;0;0;4;0;2707;0;0;0;0;5;0;6908;2;0;0;0;0;0;6;0;5144;2;0;0;0;0;0;7;0;3359;0;0;0;0;8;0;3373;0;0;0;0;9;0;1773;0;0;0;0
12.01.18;21:40:00;1;1010;8848;0;2;0;3149;0;0;0;0;3;0;1942;0;0;0;0;4;0;2707;0;0;0;0;5;0;6908;2;0;0;0;0;0;6;0;5144;2;0;0;0;0;0;7;0;3359;0;0;0;0;8;0;3373;0;0;0;0;9;0;1773;0;0;0;0
12.01.18;21:35:00;1;394;8790;0;2;0;3149;0;0;0;0;3;0;1942;0;0;0;0;4;0;2707;0;0;0;0;5;0;6908;2;0;0;0;0;0;6;0;5144;2;0;0;0;0;0;7;0;3359;0;0;0;0;8;0;3373;0;0;0;0;9;0;1773;0;0;0;0
12.01.18;21:30:00;1;391;8757;0;2;0;3149;0;0;0;0;3;0;1942;0;0;0;0;4;0;2707;0;0;0;0;5;0;6908;2;0;0;0;0;0;6;0;5144;2;0;0;0;0;0;7;0;3359;0;0;0;0;8;0;3373;0;0;0;0;9;0;1773;0;0;0;0
12.01.18;21:25:00;1;393;8724;0;2;0;3149;0;0;0;0;3;0;1942;0;0;0;0;4;0;2707;0;0;0;0;5;0;6908;2;0;0;0;0;0;6;0;5144;2;0;0;0;0;0;7;0;3359;0;0;0;0;8;0;3373;0;0;0;0;9;0;1773;0;0;0;0
12.01.18;21:20:00;1;405;8691;0;2;0;3149;0;0;0;0;3;0;1942;0;0;0;0;4;0;2707;0;0;0;0;5;0;6908;2;0;0;0;0;0;6;0;5144;2;0;0;0;0;0;7;0;3359;0;0;0;0;8;0;3373;0;0;0;0;9;0;1773;0;0;0;0
12.01.18;21:15:00;1;787;8657;0;2;0;3149;0;0;0;0;3;0;1942;0;0;0;0;4;0;2707;0;0;0;0;5;0;6908;2;0;0;0;0;0;6;0;5144;2;0;0;0;0;0;7;0;3359;0;0;0;0;8;0;3373;0;0;0;0;9;0;1773;0;0;0;0
12.01.18;21:10:00;1;440;8591;0;2;0;3149;0;0;0;0;3;0;1942;0;0;0;0;4;0;2707;0;0;0;0;5;0;6908;2;0;0;0;0;0;6;0;5144;2;0;0;0;0;0;7;0;3359;0;0;0;0;8;0;3373;0;0;0;0;9;0;1773;0;0;0;0
12.01.18;21:05:00;1;410;8555;0;2;0;3149;0;0;0;0;3;0;1942;0;0;0;0;4;0;2707;0;0;0;0;5;0;6908;2;0;0;0;0;0;6;0;5144;2;0;0;0;0;0;7;0;3359;0;0;0;0;8;0;3373;0;0;0;0;9;0;1773;0;0;0;0
12.01.18;21:00:00;1;402;8520;0;2;0;3149;0;0;0;0;3;0;1942;0;0;0;0;4;0;2707;0;0;0;0;5;0;6908;2;0;0;0;0;0;6;0;5144;2;0;0;0;0;0;7;0;3359;0;0;0;0;8;0;3373;0;0;0;0;9;0;1773;0;0;0;0
12.01.18;20:55:00;1;403;8486;0;2;0;3149;0;0;0;0;3;0;1942;0;0;0;0;4;0;2707;0;0;0;0;5;0;6908;2;0;0;0;0;0;6;0;5144;2;0;0;0;0;0;7;0;3359;0;0;0;0;8;0;3373;0;0;0;0;9;0;1773;0;0;0;0
12.01.18;20:50:00;1;402;8453;0;2;0;3149;0;0;0;0;3;0;1942;0;0;0;0;4;0;2707;0;0;0;0;5;0;6908;2;0;0;0;0;0;6;0;5144;2;0;0;0;0;0;7;0;3359;0;0;0;0;8;0;3373;0;0;0;0;9;0;1773;0;0;0;0
12.01.18;20:45:00;1;764;8419;0;2;0;3149;0;0;0;0;3;0;1942;0;0;0;0;4;0;2707;0;0;0;0;5;0;6908;2;0;0;0;0;0;6;0;5144;2;0;0;0;0;0;7;0;3359;0;0;0;0;8;0;3373;0;0;0;0;9;0;1773;0;0;0;0
12.01.18;20:40:00;1;440;8357;0;2;0;3149;0;0;0;0;3;0;1942;0;0;0;0;4;0;2707;0;0;0;0;5;0;6908;2;0;0;0;0;0;6;0;5144;2;0;0;0;0;0;7;0;3359;0;0;0;0;8;0;3373;0;0;0;0;9;0;1773;0;0;0;0
12.01.18;20:35:00;1;460;8319;0;2;0;3149;0;0;0;0;3;0;1942;0;0;0;0;4;0;2707;0;0;0;0;5;0;6908;2;0;0;0;0;0;6;0;5144;2;0;0;0;0;0;7;0;3359;0;0;0;0;8;0;3373;0;0;0;0;9;0;1773;0;0;0;0
12.01.18;20:30:00;1;459;8281;0;2;0;3149;0;0;0;0;3;0;1942;0;0;0;0;4;0;2707;0;0;0;0;5;0;6908;2;0;0;0;0;0;6;0;5144;2;0;0;0;0;0;7;0;3359;0;0;0;0;8;0;3373;0;0;0;0;9;0;1773;0;0;0;0
12.01.18;20:25:00;1;503;8242;0;2;0;3149;0;0;0;0;3;0;1942;0;0;0;0;4;0;2707;0;0;0;0;5;0;6908;2;0;0;0;0;0;6;0;5144;2;0;0;0;0;0;7;0;3359;0;0;0;0;8;0;3373;0;0;0;0;9;0;1773;0;0;0;0
12.01.18;20:20:00;1;717;8200;0;2;0;3149;0;0;0;0;3;0;1942;0;0;0;0;4;0;2707;0;0;0;0;5;0;6908;2;0;0;0;0;0;6;0;5144;2;0;0;0;0;0;7;0;3359;0;0;0;0;8;0;3373;0;0;0;0;9;0;1773;0;0;0;0
12.01.18;20:15:00;1;499;8129;0;2;0;3149;0;0;0;0;3;0;1942;0;0;0;0;4;0;2707;0;0;0;0;5;0;6908;2;0;0;0;0;0;6;0;5144;2;0;0;0;0;0;7;0;3359;0;0;0;0;8;0;3373;0;0;0;0;9;0;1773;0;0;0;0
12.01.18;20:10:00;1;397;8087;0;2;0;3149;0;0;0;0;3;0;1942;0;0;0;0;4;0;2707;0;0;0;0;5;0;6908;2;0;0;0;0;0;6;0;5144;2;0;0;0;0;0;7;0;3359;0;0;0;0;8;0;3373;0;0;0;0;9;0;1773;0;0;0;0
12.01.18;20:05:00;1;395;8054;0;2;0;3149;0;0;0;0;3;0;1942;0;0;0;0;4;0;2707;0;0;0;0;5;0;6908;2;0;0;0;0;0;6;0;5144;2;0;0;0;0;0;7;0;3359;0;0;0;0;8;0;3373;0;0;0;0;9;0;1773;0;0;0;0
12.01.18;20:00:00;1;394;8021;0;2;0;3149;0;0;0;0;3;0;1942;0;0;0;0;4;0;2707;0;0;0;0;5;0;6908;2;0;0;0;0;0;6;0;5144;2;0;0;0;0;0;7;0;3359;0;0;0;0;8;0;3373;0;0;0;0;9;0;1773;0;0;0;0
12.01.18;19:55:00;1;414;7988;0;2;0;3149;0;0;0;0;3;0;1942;0;0;0;0;4;0;2707;0;0;0;0;5;0;6908;2;0;0;0;0;0;6;0;5144;2;0;0;0;0;0;7;0;3359;0;0;0;0;8;0;3373;0;0;0;0;9;0;1773;0;0;0;0
12.01.18;19:50:00;1;848;7953;0;2;0;3149;0;0;0;0;3;0;1942;0;0;0;0;4;0;2707;0;0;0;0;5;0;6908;2;0;0;0;0;0;6;0;5144;2;0;0;0;0;0;7;0;3359;0;0;0;0;8;0;3373;0;0;0;0;9;0;1773;0;0;0;0
12.01.18;19:45:00;1;434;7888;0;2;0;3149;0;0;0;0;3;0;1942;0;0;0;0;4;0;2707;0;0;0;0;5;0;6908;2;0;0;0;0;0;6;0;5144;2;0;0;0;0;0;7;0;3359;0;0;0;0;8;0;3373;0;0;0;0;9;0;1773;0;0;0;0
12.01.18;19:40:00;1;534;7851;0;2;0;3149;0;0;0;0;3;0;1942;0;0;0;0;4;0;2707;0;0;0;0;5;0;6908;2;0;0;0;0;0;6;0;5144;2;0;0;0;0;0;7;0;3359;0;0;0;0;8;0;3373;0;0;0;0;9;0;1773;0;0;0;0
12.01.18;19:35:00;1;723;7800;0;2;0;3149;0;0;0;0;3;0;1942;0;0;0;0;4;0;2707;0;0;0;0;5;0;6908;2;0;0;0;0;0;6;0;5144;2;0;0;0;0;0;7;0;3359;0;0;0;0;8;0;3373;0;0;0;0;9;0;1773;0;0;0;0
12.01.18;19:30:00;1;761;7739;0;2;0;3149;0;0;0;0;3;0;1942;0;0;0;0;4;0;2707;0;0;0;0;5;0;6908;2;0;0;0;0;0;6;0;5144;2;0;0;0;0;0;7;0;3359;0;0;0;0;8;0;3373;0;0;0;0;9;0;1773;0;0;0;0
12.01.18;19:25:00;1;1147;7675;0;2;0;3149;0;0;0;0;3;0;1942;0;0;0;0;4;0;2707;0;0;0;0;5;0;6908;2;0;0;0;0;0;6;0;5144;2;0;0;0;0;0;7;0;3359;0;0;0;0;8;0;3373;0;0;0;0;9;0;1773;0;0;0;0
12.01.18;19:20:00;1;781;7583;0;2;0;3149;0;0;0;0;3;0;1942;0;0;0;0;4;0;2707;0;0;0;0;5;0;6908;2;0;0;0;0;0;6;0;5144;2;0;0;0;0;0;7;0;3359;0;0;0;0;8;0;3373;0;0;0;0;9;0;1773;0;0;0;0
12.01.18;19:15:00;1;1512;7517;0;2;0;3149;0;0;0;0;3;0;1942;0;0;0;0;4;0;2707;0;0;0;0;5;0;6908;2;0;0;0;0;0;6;0;5144;2;0;0;0;0;0;7;0;3359;0;0;0;0;8;0;3373;0;0;0;0;9;0;1773;0;0;0;0
12.01.18;19:10:00;1;2851;7381;0;2;0;3149;0;0;0;0;3;0;1942;0;0;0;0;4;0;2707;0;0;0;0;5;0;6908;2;0;0;0;0;0;6;0;5144;2;0;0;0;0;0;7;0;3359;0;0;0;0;8;0;3373;0;0;0;0;9;0;1773;0;0;0;0
12.01.18;19:05:00;1;1361;7135;0;2;0;3149;0;0;0;0;3;0;1942;0;0;0;0;4;0;2707;0;0;0;0;5;0;6908;2;0;0;0;0;0;6;0;5144;2;0;0;0;0;0;7;0;3359;0;0;0;0;8;0;3373;0;0;0;0;9;0;1773;0;0;0;0
12.01.18;19:00:00;1;200;7049;0;2;0;3149;0;0;0;0;3;0;1942;0;0;0;0;4;0;2707;0;0;0;0;5;0;6908;2;0;0;0;0;0;6;0;5144;2;0;0;0;0;0;7;0;3359;0;0;0;0;8;0;3373;0;0;0;0;9;0;1773;0;0;0;0
12.01.18;18:55:00;1;463;7033;0;2;0;3149;0;0;0;0;3;0;1942;0;0;0;0;4;0;2707;0;0;0;0;5;0;6908;2;0;0;0;0;0;6;0;5144;2;0;0;0;0;0;7;0;3359;0;0;0;0;8;0;3373;0;0;0;0;9;0;1773;0;0;0;0
12.01.18;18:50:00;1;258;6983;0;2;0;3149;0;0;0;0;3;0;1942;0;0;0;0;4;0;2707;0;0;0;0;5;0;6908;2;0;0;0;0;0;6;0;5144;2;0;0;0;0;0;7;0;3359;0;0;0;0;8;0;3373;0;0;0;0;9;0;1773;0;0;0;0
12.01.18;18:45:00;1;257;6961;0;2;0;3149;0;0;0;0;3;0;1942;0;0;0;0;4;0;2707;0;0;0;0;5;0;6908;2;0;0;0;0;0;6;0;5144;2;0;0;0;0;0;7;0;3359;0;0;0;0;8;0;3373;0;0;0;0;9;0;1773;0;0;0;0
12.01.18;18:40:00;1;293;6940;0;2;0;3149;0;0;0;0;3;0;1942;0;0;0;0;4;0;2707;0;0;0;0;5;0;6908;2;0;0;0;0;0;6;0;5144;2;0;0;0;0;0;7;0;3359;0;0;0;0;8;0;3373;0;0;0;0;9;0;1773;0;0;0;0
12.01.18;18:35:00;1;301;6915;0;2;0;3149;0;0;0;0;3;0;1942;0;0;0;0;4;0;2707;0;0;0;0;5;0;6908;2;0;0;0;0;0;6;0;5144;2;0;0;0;0;0;7;0;3359;0;0;0;0;8;0;3373;0;0;0;0;9;0;1773;0;0;0;0
12.01.18;18:30:00;1;312;6890;0;2;0;3149;0;0;0;0;3;0;1942;0;0;0;0;4;0;2707;0;0;0;0;5;0;6908;2;0;0;0;0;0;6;0;5144;2;0;0;0;0;0;7;0;3359;0;0;0;0;8;0;3373;0;0;0;0;9;0;1773;0;0;0;0
12.01.18;18:25:00;1;542;6847;0;2;0;3149;0;0;0;0;3;0;1942;0;0;0;0;4;0;2707;0;0;0;0;5;0;6908;2;0;0;0;0;0;6;0;5144;2;0;0;0;0;0;7;0;3359;0;0;0;0;8;0;3373;0;0;0;0;9;0;1773;0;0;0;0
12.01.18;18:20:00;1;189;6821;0;2;0;3149;0;0;0;0;3;0;1942;0;0;0;0;4;0;2707;0;0;0;0;5;0;6908;2;0;0;0;0;0;6;0;5144;2;0;0;0;0;0;7;0;3359;0;0;0;0;8;0;3373;0;0;0;0;9;0;1773;0;0;0;0
12.01.18;18:15:00;1;189;6805;0;2;0;3149;0;0;0;0;3;0;1942;0;0;0;0;4;0;2707;0;0;0;0;5;0;6908;2;0;0;0;0;0;6;0;5144;2;0;0;0;0;0;7;0;3359;0;0;0;0;8;0;3373;0;0;0;0;9;0;1773;0;0;0;0
12.01.18;18:10:00;1;190;6789;0;2;0;3149;0;0;0;0;3;0;1942;0;0;0;0;4;0;2707;0;0;0;0;5;0;6908;2;0;0;0;0;0;6;0;5144;2;0;0;0;0;0;7;0;3359;0;0;0;0;8;0;3373;0;0;0;0;9;0;1773;0;0;0;0
12.01.18;18:05:00;1;190;6773;0;2;0;3149;0;0;0;0;3;0;1942;0;0;0;0;4;0;2707;0;0;0;0;5;0;6908;2;0;0;0;0;0;6;0;5144;2;0;0;0;0;0;7;0;3359;0;0;0;0;8;0;3373;0;0;0;0;9;0;1773;0;0;0;0
12.01.18;18:00:00;1;404;6757;0;2;0;3149;0;0;0;0;3;0;1942;0;0;0;0;4;0;2707;0;0;0;0;5;0;6908;2;0;0;0;0;0;6;0;5144;2;0;0;0;0;0;7;0;3359;0;0;0;0;8;0;3373;0;0;0;0;9;0;1773;0;0;0;0
12.01.18;17:55:00;1;190;6712;0;2;0;3149;0;0;0;0;3;0;1942;0;0;0;0;4;0;2707;0;0;0;0;5;0;6908;2;0;0;0;0;0;6;0;5144;2;0;0;0;0;0;7;0;3359;0;0;0;0;8;0;3373;0;0;0;0;9;0;1773;0;0;0;0
12.01.18;17:50:00;1;209;6696;0;2;0;3149;0;0;0;0;3;0;1942;0;0;0;0;4;0;2707;0;0;0;0;5;0;6908;2;0;0;0;0;0;6;0;5144;2;0;0;0;0;0;7;0;3359;0;0;0;0;8;0;3373;0;0;0;0;9;0;1773;0;0;0;0
12.01.18;17:45:00;1;252;6678;0;2;0;3149;0;0;0;0;3;0;1942;0;0;0;0;4;0;2707;0;0;0;0;5;0;6908;2;0;0;0;0;0;6;0;5144;2;0;0;0;0;0;7;0;3359;0;0;0;0;8;0;3373;0;0;0;0;9;0;1773;0;0;0;0
12.01.18;17:40:00;1;233;6657;0;2;0;3149;0;0;0;0;3;0;1942;0;0;0;0;4;0;2707;0;0;0;0;5;0;6908;2;0;0;0;0;0;6;0;5144;2;0;0;0;0;0;7;0;3359;0;0;0;0;8;0;3373;0;0;0;0;9;0;1773;0;0;0;0
12.01.18;17:35:00;1;208;6637;0;2;0;3149;0;0;0;0;3;0;1942;0;0;0;0;4;0;2707;0;0;0;0;5;0;6908;2;0;0;0;0;0;6;0;5144;2;0;0;0;0;0;7;0;3359;0;0;0;0;8;0;3373;0;0;0;0;9;0;1773;0;0;0;0
12.01.18;17:30:00;1;702;6619;0;2;0;3149;0;0;0;0;3;0;1942;0;0;0;0;4;0;2707;0;0;0;0;5;0;6908;2;0;0;0;0;0;6;0;5144;2;0;0;0;0;0;7;0;3359;0;0;0;0;8;0;3373;0;0;0;0;9;0;1773;0;0;0;0
12.01.18;17:25:00;1;190;6574;0;2;0;3149;0;0;0;0;3;0;1942;0;0;0;0;4;0;2707;0;0;0;0;5;0;6908;2;0;0;0;0;0;6;0;5144;2;0;0;0;0;0;7;0;3359;0;0;0;0;8;0;3373;0;0;0;0;9;0;1773;0;0;0;0
12.01.18;17:20:00;1;189;6559;0;2;0;3149;0;0;0;0;3;0;1942;0;0;0;0;4;0;2707;0;0;0;0;5;0;6908;2;0;0;0;0;0;6;0;5144;2;0;0;0;0;0;7;0;3359;0;0;0;0;8;0;3373;0;0;0;0;9;0;1773;0;0;0;0
12.01.18;17:15:00;1;192;6543;0;2;0;3149;0;0;0;0;3;0;1942;0;0;0;0;4;0;2707;0;0;0;0;5;0;6908;2;0;0;0;0;0;6;0;5144;2;0;0;0;0;0;7;0;3359;0;0;0;0;8;0;3373;0;0;0;0;9;0;1773;0;0;0;0
12.01.18;17:10:00;1;255;6526;0;2;0;3149;0;0;0;0;3;0;1942;0;0;0;0;4;0;2707;0;0;0;0;5;0;6908;2;0;0;0;0;0;6;0;5144;2;0;0;0;0;0;7;0;3359;0;0;0;0;8;0;3373;0;0;0;0;9;0;1773;0;0;0;0
12.01.18;17:05:00;1;270;6505;0;2;0;3149;0;0;0;0;3;0;1942;0;0;0;0;4;0;2707;0;0;0;0;5;0;6908;2;0;0;0;0;0;6;0;5144;2;0;0;0;0;0;7;0;3359;0;0;0;0;8;0;3373;0;0;0;0;9;0;1773;0;0;0;0
12.01.18;17:00:00;1;458;6464;0;2;0;3149;0;0;0;0;3;0;1942;0;0;0;0;4;0;2707;0;0;0;0;5;0;6908;2;0;0;0;0;0;6;0;5144;2;0;0;0;0;0;7;0;3359;0;0;0;0;8;0;3373;0;0;0;0;9;0;1773;0;0;0;0
12.01.18;16:55:00;1;277;6433;0;2;0;3149;0;0;147;5;3;0;1942;6;0;280;13;4;0;2707;0;0;0;0;5;0;6908;2;0;0;0;0;0;6;0;5144;2;0;0;0;0;0;7;0;3359;0;0;0;0;8;0;3373;0;0;0;0;9;0;1773;0;0;0;0
12.01.18;16:50:00;1;299;6410;0;2;0;3149;6;0;293;10;3;0;1942;6;0;329;13;4;0;2707;2;0;76;9;5;0;6908;2;0;0;0;0;0;6;0;5144;0;0;0;0;0;0;7;0;3359;0;0;0;0;8;0;3373;0;0;0;0;9;0;1773;0;0;0;0
12.01.18;16:45:00;1;284;6385;0;2;0;3149;6;0;330;10;3;0;1942;6;1;386;14;4;0;2707;1;0;113;10;5;0;6908;26;0;1;281;289;21;6;0;5144;1;5;2;149;304;17;7;0;3359;0;0;41;2;8;0;3373;0;0;42;2;9;0;1773;0;0;132;4
12.01.18;16:40:00;1;197;6361;0;2;0;3149;6;0;356;10;3;1;1942;6;4;404;14;4;0;2707;1;0;147;10;5;0;6908;23;0;0;393;507;21;6;0;5144;23;5;3;181;507;20;7;0;3359;6;0;285;14;8;0;3373;6;0;289;13;9;0;1773;6;0;306;9
12.01.18;16:35:00;1;431;6344;0;2;0;3149;6;0;377;11;3;0;1942;6;1;456;14;4;0;2707;1;0;181;10;5;0;6908;1;0;0;412;606;21;6;0;5144;23;6;3;181;547;21;7;0;3359;6;0;353;14;8;0;3373;6;0;359;13;9;0;1773;6;0;380;10
12.01.18;16:30:00;1;187;6299;0;2;0;3149;6;0;393;11;3;1;1942;6;3;468;14;4;0;2707;1;0;209;11;5;9;6907;1;1;0;411;642;22;6;0;5144;23;6;4;182;569;21;7;0;3359;6;0;407;14;8;0;3373;6;0;397;13;9;0;1773;3;0;419;10
12.01.18;16:25:00;1;187;6284;0;2;1;3149;6;6;401;11;3;2;1942;6;8;475;14;4;0;2707;3;0;220;11;5;48;6906;1;9;12;399;637;22;6;15;5144;1;10;12;557;536;22;7;0;3359;6;1;444;14;8;0;3373;6;1;447;13;9;1;1773;6;1;482;10
12.01.18;16:20:00;1;188;6268;0;2;7;3149;3;17;395;11;3;0;1941;6;0;535;14;4;0;2707;3;0;236;11;5;90;6902;4;23;26;383;613;23;6;58;5142;4;30;36;468;441;23;7;0;3359;4;4;462;14;8;0;3373;6;0;488;14;9;3;1773;6;3;508;10
12.01.18;16:15:00;1;189;6252;0;2;3;3149;6;7;410;11;3;1;1941;3;10;490;14;4;0;2707;3;0;225;11;5;95;6894;4;31;28;383;613;23;6;62;5137;4;32;37;467;441;23;7;5;3359;3;15;429;14;8;3;3373;3;9;451;14;9;2;1773;6;6;489;10
12.01.18;16:10:00;1;188;6236;0;2;3;3148;6;8;409;12;3;1;1941;6;6;507;14;4;0;2707;3;0;218;11;5;98;6886;4;29;28;383;613;23;6;65;5132;4;46;54;467;441;23;7;0;3359;6;5;463;14;8;3;3373;6;5;453;14;9;2;1773;6;4;509;10
12.01.18;16:05:00;1;425;6221;0;2;4;3148;6;8;413;12;3;1;1941;6;5;515;14;4;0;2707;3;0;216;12;5;113;6878;4;39;32;383;613;23;6;74;5127;4;42;49;468;441;23;7;0;3359;6;4;471;15;8;2;3373;6;4;471;14;9;2;1773;6;3;520;10
12.01.18;16:00:00;1;222;6176;0;2;6;3148;6;11;413;12;3;2;1941;6;8;517;14;4;0;2707;3;0;220;12;5;126;6868;4;49;38;383;613;23;6;81;5120;4;32;36;468;441;23;7;1;3358;6;8;468;15;8;1;3373;6;8;473;14;9;1;1772;4;5;519;10
12.01.18;15:55:00;1;231;6157;0;2;5;3147;4;9;415;12;3;4;1941;6;13;498;15;4;2;2707;3;2;199;12;5;138;6858;4;52;47;383;613;23;6;86;5114;4;46;52;468;441;23;7;2;3358;6;7;480;15;8;4;3372;6;14;456;15;9;2;1772;3;10;502;11
12.01.18;15:50:00;1;256;6137;0;2;48;3147;4;76;361;13;3;0;1941;6;0;554;15;4;12;2707;3;12;199;12;5;157;6846;4;61;54;383;613;23;6;102;5106;4;44;51;468;441;23;7;5;3358;4;9;477;15;8;0;3372;6;0;508;15;9;3;1772;6;6;532;11
12.01.18;15:45:00;1;198;6118;0;2;59;3143;4;88;372;13;3;10;1941;4;20;511;15;4;24;2706;3;25;198;12;5;186;6833;4;75;63;383;613;23;6;118;5098;4;58;68;467;441;23;7;40;3358;4;73;363;15;8;44;3372;4;69;362;15;9;3;1772;6;7;544;11
12.01.18;15:40:00;1;222;6101;0;2;71;3138;4;101;372;13;3;8;1940;6;14;536;15;4;36;2704;3;37;198;12;5;208;6817;4;90;79;383;613;23;6;130;5088;4;39;43;468;441;23;7;48;3354;4;79;430;16;8;47;3368;4;87;421;15;9;5;1772;6;10;542;11
12.01.18;15:35:00;1;437;6083;0;2;86;3132;4;114;361;13;3;15;1939;6;26;516;15;4;36;2701;3;37;198;12;5;219;6800;4;100;89;383;613;23;6;142;5076;4;74;79;467;441;23;7;74;3350;4;97;411;16;8;69;3365;4;98;407;15;9;5;1771;6;8;553;11
12.01.18;15:30:00;1;671;6037;0;2;89;3125;4;118;371;13;3;9;1938;6;16;540;15;4;38;2698;3;39;198;12;5;234;6781;4;105;97;383;613;23;6;153;5064;4;68;72;467;441;23;7;60;3344;4;101;410;16;8;70;3359;4;100;411;15;9;7;1771;4;11;545;11
12.01.18;15:25:00;1;392;6002;0;2;91;3117;4;123;377;13;3;29;1937;6;49;432;16;4;51;2695;3;54;198;12;5;235;6762;4;106;96;383;613;23;6;154;5052;4;64;67;467;441;23;7;78;3339;4;96;372;16;8;71;3353;4;104;411;15;9;18;1770;3;30;500;11
12.01.18;15:20:00;1;393;5970;0;2;103;3110;4;136;371;13;3;57;1935;4;91;444;16;4;53;2691;3;55;198;13;5;254;6742;4;117;104;383;613;23;6;167;5039;4;76;78;468;441;23;7;88;3332;4;116;376;16;8;94;3347;4;115;382;15;9;9;1768;6;14;554;12
12.01.18;15:15:00;1;421;5937;0;2;127;3101;4;157;373;14;3;70;1930;4;107;457;16;4;80;2686;3;83;199;13;5;302;6720;4;148;122;383;613;23;6;193;5025;4;91;95;467;441;23;7;115;3325;4;154;433;16;8;115;3339;4;154;425;15;9;35;1768;6;48;520;12
12.01.18;15:10:00;1;434;5901;0;2;158;3091;4;189;382;14;3;92;1924;4;132;481;16;4;117;2680;5;122;225;13;5;373;6695;4;186;161;383;613;23;6;239;5008;4;109;115;468;441;23;7;151;3316;4;191;455;16;8;164;3330;4;197;430;15;9;84;1765;4;108;469;12
12.01.18;15:05:00;1;1349;5866;0;2;192;3077;4;226;371;14;3;113;1917;4;150;496;16;4;148;2670;5;154;228;13;5;439;6664;4;216;187;399;619;23;6;314;4988;4;164;180;521;535;23;7;191;3303;4;227;438;16;8;187;3316;4;229;447;16;9;93;1758;4;130;497;12
12.01.18;15:00:00;1;1015;5747;0;2;251;3062;4;287;383;14;3;151;1907;4;190;492;17;4;197;2658;5;205;230;13;5;534;6627;4;279;227;409;623;23;6;400;4961;4;191;200;569;561;23;7;245;3287;4;277;447;16;8;239;3300;4;277;453;16;9;126;1751;4;155;509;13
12.01.18;14:55:00;1;437;5677;0;2;298;3041;4;338;392;14;3;181;1895;4;222;514;17;4;238;2641;5;248;231;13;5;611;6582;4;304;258;414;634;23;6;460;4927;4;233;238;588;566;23;7;291;3267;4;337;462;16;8;300;3280;4;335;457;16;9;159;1740;4;189;507;13
12.01.18;14:50:00;1;368;5644;0;2;342;3016;4;384;403;14;3;212;1880;4;252;498;17;4;282;2622;5;294;232;13;5;717;6531;4;361;301;418;647;23;6;527;4888;4;278;286;577;568;23;7;347;3243;4;390;449;16;8;352;3256;4;389;450;16;9;188;1727;4;219;513;13
12.01.18;14:45:00;1;367;5614;0;2;403;2987;4;445;405;15;3;249;1862;4;293;502;17;4;332;2598;5;346;238;13;5;801;6471;4;406;347;411;659;23;6;609;4844;4;309;317;592;568;23;7;424;3214;4;458;453;16;8;412;3226;4;460;467;16;9;222;1711;4;257;513;13
12.01.18;14:40:00;1;356;5583;0;2;519;2954;4;563;408;15;3;320;1841;4;370;512;17;4;437;2571;5;455;240;13;5;1019;6403;4;521;437;418;677;23;6;766;4792;4;382;383;590;566;23;7;557;3179;4;599;484;16;8;562;3192;4;600;477;16;9;292;1693;4;332;531;13
12.01.18;14:35:00;1;1009;5553;0;2;555;2912;4;600;401;15;3;347;1815;4;396;501;17;4;474;2535;5;494;238;13;5;1080;6317;4;559;470;416;691;23;6;825;4728;4;440;439;600;577;23;7;622;3133;4;659;479;16;8;618;3146;4;659;481;16;9;328;1669;4;368;522;13
12.01.18;14:30:00;1;309;5498;0;2;523;2865;4;570;406;15;3;328;1786;4;379;516;17;4;453;2495;5;472;242;13;5;1081;6225;4;549;467;418;681;23;6;820;4659;4;432;434;596;571;23;7;584;3082;4;633;479;16;8;596;3095;4;642;478;16;9;316;1642;4;357;534;13
12.01.18;14:25:00;1;309;5472;0;2;412;2822;4;454;396;15;3;257;1759;4;301;504;17;4;359;2458;5;374;234;13;5;917;6135;4;461;394;415;669;23;6;697;4591;4;350;353;588;564;23;7;448;3033;4;491;470;16;8;458;3045;4;498;473;16;9;248;1615;4;283;519;13
12.01.18;14:20:00;1;318;5446;0;2;385;2787;4;425;398;15;3;236;1737;4;280;500;17;4;330;2427;5;344;236;13;5;873;6059;4;446;372;411;677;23;6;651;4533;4;303;306;583;571;23;7;410;2995;4;455;473;16;8;413;3006;4;456;464;16;9;219;1594;4;253;510;13
12.01.18;14:15:00;1;353;5419;0;2;559;2755;4;608;404;15;3;349;1718;4;398;512;17;4;486;2400;5;506;239;13;5;1173;5985;4;602;501;425;681;23;6;877;4478;4;458;459;587;574;23;7;610;2961;4;662;482;16;8;618;2972;4;661;478;16;9;326;1576;4;366;519;13
12.01.18;14:10:00;1;333;5390;0;2;645;2709;4;693;402;15;3;403;1689;4;455;521;17;4;564;2360;5;587;241;13;5;1338;5886;4;682;576;426;695;23;6;1003;4404;4;509;507;592;571;23;7;718;2911;4;768;484;16;8;718;2921;4;773;477;16;9;388;1550;4;431;531;13
12.01.18;14:05:00;1;1069;5362;0;2;877;2655;4;931;414;15;3;552;1655;4;612;526;17;4;751;2313;5;782;243;13;5;1662;5775;4;858;724;427;693;23;6;1248;4320;4;648;638;604;576;23;7;844;2851;4;888;482;16;8;828;2862;4;881;478;16;9;446;1517;4;491;525;13
12.01.18;14:00:00;1;304;5303;0;2;795;2583;4;849;411;15;3;499;1610;4;554;512;17;4;695;2251;5;724;243;13;5;1586;5635;4;829;695;423;696;23;6;1221;4214;4;641;633;602;579;22;7;734;2782;4;778;482;16;8;735;2794;4;786;478;16;9;397;1481;4;439;525;13
12.01.18;13:55:00;1;310;5277;0;2;665;2516;4;714;405;15;3;419;1568;4;471;510;17;4;562;2192;5;585;242;13;5;1270;5505;4;664;549;426;702;23;6;975;4114;4;519;512;595;569;22;7;692;2719;4;748;476;16;8;696;2731;4;747;482;16;9;373;1447;4;417;523;13
12.01.18;13:50:00;1;310;5251;0;2;661;2460;4;714;412;15;3;419;1532;4;471;516;17;4;567;2145;5;591;243;13;5;1286;5398;4;665;559;419;695;23;6;977;4034;4;507;500;598;573;22;7;760;2662;4;809;482;16;8;755;2673;4;804;480;16;9;408;1416;4;453;529;13
12.01.18;13:45:00;1;372;5224;0;2;757;2404;4;812;410;15;3;477;1497;4;532;520;17;4;652;2098;5;679;246;13;5;1512;5289;4;786;653;423;709;23;6;1136;3951;4;549;543;600;574;22;7;934;2599;4;993;486;16;8;931;2610;4;981;480;15;9;495;1382;4;543;533;14